User: anonymous   Login
Location: Arrington
(35.8681°N, 86.7092°W)
Time: 15:40:56
(UTC+00:00)
Language:

Cosmos 1743 Rocket - Orbit

View from above orbital plane
View from above orbital plane
View from above satellite
View from above satellite

Ground track
Ground track

The orbit data is extracted from the following two-line orbital elements,

1 16720U 86034B   20020.69340334 +.00000047 +00000-0 +27530-5 0  9996
2 16720 082.5533 078.0692 0019351 211.6911 268.1122 14.83383525798633
Epoch (UTC): 20 January 2020 16:38:30
Eccentricity: 0.0019351
inclination: 82.5533°
perigee height: 605 km
apogee height: 632 km
right ascension of ascending node: 78.0692°
argument of perigee: 211.6911°
revolutions per day: 14.83383525
mean anomaly at epoch: 268.1122°
orbit number at epoch: 79863

The dashed part of the orbit path shows where the satellite is in the earth's shadow,  

DLR